Location: ??????????
(54.4061°N, 22.6114°E)
Time: 20:40:55
(UTC+00:00)

STARLINK-74 - Pass Details

Date: 23 October 2019
Orbit: 548 x 551 km, 53.0° (Epoch: 21 November)

Event Time Altitude Azimuth Distance (km) Brightness Sun altitude
Rises 17:47:56 0° 281° (W) 2,722 8.7 -22.9°
Reaches altitude 10° 17:50:13 10° 276° (W) 1,827 7.4 -23.2°
Enters shadow 17:54:06 49° 208° (SSW) 719 4.2 -23.8°
